Location: *
(41.0833°N, 73.4167°W)
Time: 19:52:09
(UTC+00:00)

Cosmos 1603 - Pass Details

Date: 22 October 2019
Orbit: 829 x 861 km, 71.0° (Epoch: 12 November)

Event Time Altitude Azimuth Distance (km) Brightness Sun altitude
Rises 10:08:49 0° 195° (SSW) 3,362 6.7 -12.7°
Reaches altitude 10° 10:11:15 10° 193° (SSW) 2,435 6.0 -12.3°
Maximum altitude 10:16:48 71° 111° (ESE) 884 4.0 -11.2°
Drops below altitude 10° 10:22:26 10° 28° (NNE) 2,471 6.4 -10.2°
Sets 10:24:54 0° 26° (NNE) 3,415 7.1 -9.7°
